Погода в Долишнем Шепоте

Украина / Черновицкая область     48°00′44″N   25°17′16″E
В апреле 2022 года жителям России запретили посещать сайт meteo.paraplan.net по решению Генеральной прокуратуры. Аудитория сайта уменьшилась в 10 раз. Владельцы сайта не видят смысла в поддержке погодного сервера в таких условиях. Сайт будет закрыт в октябре.
темп.,
°C
ветер,
м/с
пор.,
м/с
влажн.,
%
обл.,
%
осадки,
мм/ч
давл.,
гПа
погр.,
м
3 октября, пн
пн300:00+7з510745 0.0 1012754
03:00+7з411766 0.0 1011582
06:00+6зюз258591 0.1 1010216
09:00+7з268488 0.2 1011428
12:00+10з586099 0.6 10101772
15:00+8з51174100 1.1 10111290
18:00+7з51174100 0.1 10111228
21:00+4з3891100 0.1 1013460
4 октября, вт
вт400:00+5з398875 0.1 1014859
03:00+3зюз2293100 0.2 101536
06:00+5зюз1593100 0.6 1015407
09:00+5зюз129198 1.0 1017222
12:00+6зюз2491100 1.2 1019555
15:00+8з2472100 1.3 1018865
18:00+7з257769 0.1 1020343
21:00+3юз2193100 0.2 102314
5 октября, ср
ср500:00+5зюз1186100 0.0 102436
03:00+3юз22939 0.0 102619
06:00+2ююз22945 0.0 102729
09:00+6юз227986 0.0 1027115
12:00+11зюз2353100 0.0 1025840
15:00+13з444972 0.0 10251022
18:00+10зюз266678 0.0 1025288
21:00+5юз2285100 0.0 102827
6 октября, чт
чт600:00+5юз2282100 0.0 102852
03:00+5юз2276100 0.0 102839
06:00+5юз2273100 0.0 102835
09:00+8юз2265100 0.0 102768
12:00+15зюз1145100 0.0 1026365
15:00+18с123997 0.0 1026950
18:00+13св1166100 0.0 102711
21:00+9зсз117990 0.0 103011
7 октября, пт
пт700:00+8юз11895 0.0 103211
03:00+9зюз1182100 0.0 103131
06:00+9сз018898 0.1 103116
09:00+9ссв119599 0.1 1031106
12:00+12св117894 0.0 1030608
15:00+14в116895 0.1 1028804
18:00+12в118456 0.0 102733
21:00+8ю229699 0.0 102732